SCP
0 0 0 0 0 0 0 0 0 0 0 0 0 0 0 0 0 0 0 0 0 0 0 0 0 0 0 0 0 0 0 0 0 0 0 0 0 0 0 0 0 0 0 0 0 0 0
0 0 0 0 0 0 0 0 0 0 0 0 0 0 0 0 0 0 0 0 0 0 0 0 0 -0 0 0 0 0 0 0 0 0 0 0 0 0 0 0 0 0 0 0 0 0 0
0 0 0 0 0 0 0 0 0 0 0 0 0 0 0 0 0 0 0 0 0 0 0 0 0 0 0 -0 0 0 0 0 0 0 0 0 0 0 0 0 0 0 0 0 0 0 0
0 0 0 0 0 0 0 0 0 0 0 0 0 0 0 0 0 0 0 0 0 0 0 0 0 0 0 -0 0 0 0 0 0 0 0 0 0 0 0 0 0 0 0 0 0 0 0
0 0 0 0 0 0 0 0 0 0 0 0 0 0 0 0 0 0 0 0 0 0 0 0 0 0 0 0 0 0 0 0 0 0 0 0 0 0 0 0 0 0 0 0 0 0 0
0 0 0 0 0 0 0 0 0 0 0 0 0 0 0 0 0 -0 -0 -0 0 0 0 0 0 0 0 0 0 0 0 0 0 0 0 0 0 0 0 0 0 0 0 0 0 0 0
0 0 0 0 0 0 0 0 0 0 0 0 0 0 0 0 0 0 0 0 0 0 0 0 0 0 0 0 0 0 0 0 0 0 0 0 0 0 0 0 0 0 0 0 0 0 0
0 0 0 0 0 0 0 0 0 0 0 0 0 0 0 0 0 0 0 0 0 0 0 0 0 0 0 0 0 0 0 0 0 0 0 0 0 0 0 0 0 0 0 0 0 0 0
0 0 0 0 0 0 0 0 0 0 0 0 0 0 0 0 0 0 0 0 0 0 0 0 0 0 0 0 0 0 0 0 0 0 0 0 0 0 0 0 0 0 0 0 0 0 0
0 0 0 0 0 0 0 0 0 0 0 0 0 0 0 0 0 0 0 0 0 0 0 0 0 0 0 0 0 0 0 0 0 0 0 0 0 0 0 0 0 0 0 0 0 0 0
0 0 0 0 0 0 0 0 0 0 0 0 0 0 0 0 0 0 0 0 0 0 -0 0 0 0 0 0 0 0 0 0 0 0 0 0 0 0 0 0 0 0 0 0 0 0 0
0 0 0 0 0 0 0 0 0 0 0 0 0 0 0 0 0 0 0 0 0 0 0 -0 0 0 0 0 0 0 0 0 0 0 0 0 0 0 0 0 0 0 0 0 0 0 0
0 0 0 0 0 0 0 0 0 0 0 0 0 0 0 0 0 0 0 0 0 0 0 0 0 0 0 0 0 0 0 0 0 0 0 0 0 0 0 0 0 0 0 0 0 0 0
0 0 0 0 0 0 0 0 0 0 0 0 0 0 0 0 0 0 0 0 0 0 0 0 -0 -0 0 -0 0 0 0 0 0 0 0 0 0 0 0 0 0 0 0 0 0 0 0
0 0 0 0 0 0 0 0 0 0 0 0 0 0 0 0 0 0 0 0 0 0 0 0 0 -0 0 -0 0 0 0 0 0 0 0 0 0 0 0 0 0 0 0 0 0 0 0
0 0 0 0 0 0 0 0 0 0 0 0 0 0 0 0 0 0 0 0 0 -0 0 -0 0 -0 -0 0 -0 0 0 0 0 0 0 0 0 0 0 0 0 0 0 0 0 0 0
0 0 0 0 0 0 0 0 0 0 0 0 0 0 0 0 0 0 0 0 0 0 0 0 0 -0 -0 0 0 0 0 0 0 0 0 0 0 0 0 0 0 0 0 0 0 0 0
0 0 0 0 0 0 0 0 0 0 0 0 0 0 0 0 0 0 0 0 0 0 0 0 0 0 0 0 0 0 0 0 0 0 0 0 0 0 0 0 0 0 0 0 0 0 0
0 0 0 0 0 0 0 0 0 0 0 0 0 0 0 0 0 0 0 0 0 0 0 0 0 0 0 0 0 0 0 0 0 0 0 0 0 0 0 0 0 0 0 0 0 0 0
0 0 0 0 0 0 0 0 0 0 0 0 0 0 0 0 0 0 0 0 0 0 0 0 0 0 0 0 0 0 0 0 0 0 0 0 0 0 0 0 0 0 0 0 0 0 0
0 0 0 0 0 0 0 0 0 0 0 0 0 0 0 0 0 0 0 0 0 -0 0 0 0 0 0 0 0 0 0 0 0 0 0 0 0 0 0 0 0 0 0 0 0 0 0
0 0 0 0 0 0 0 0 0 0 0 0 0 0 0 0 0 0 0 0 0 0 0 0 0 0 0 0 0 0 0 0 0 0 0 0 0 0 0 0 0 0 0 0 0 0 0
0 0 0 0 0 0 0 0 0 0 0 0 0 0 0 0 0 0 0 0 0 0 0 0 0 0 0 0 0 0 0 0 0 0 0 0 0 0 0 0 0 0 0 0 0 0 0
0 0 0 0 0 0 0 0 0 0 0 0 0 0 0 0 0 0 0 0 0 0 0 -0 0 0 0 0 0 0 0 0 0 0 0 0 0 0 0 0 0 0 0 0 0 0 0
0 0 0 0 0 0 0 0 0 0 0 0 0 0 0 0 0 0 0 0 0 0 0 -0 0 0 0 0 0 0 0 0 0 0 0 0 0 0 0 0 0 0 0 0 0 0 0
0 0 0 0 0 0 0 0 0 0 0 0 0 0 0 0 0 0 0 0 0 0 0 -0 0 0 0 0 0 0 0 0 0 0 0 0 0 0 0 0 0 0 0 0 0 0 0
0 0 0 0 0 0 0 0 0 0 0 0 0 0 0 0 0 0 0 0 0 0 0 0 -0 -0 0 0 0 0 0 0 0 0 0 0 0 0 0 0 0 0 0 0 0 0 0
0 0 0 0 0 0 0 0 0 0 0 0 0 0 0 0 0 0 0 0 0 -0 0 -0 -0 -0 0 0 0 0 0 0 0 0 0 0 0 0 0 0 0 0 0 0 0 0 0
0 0 0 0 0 0 0 0 0 0 0 0 0 0 0 0 0 0 0 0 -0 -0 -0 0 0 0 0 0 0 0 0 0 0 0 0 0 0 0 0 0 0 0 0 0 0 0 0
Wind_Speed_500mb
39 41 42 44 46 38 38 37 38 36 35 30 26 31 38 36 28 18 18 18 18 14 16 19 23 19 8 4 7 7 6 17 29 40 19 31 35 23 9 18 16 7 15 36 24 37 23
42 40 42 43 43 43 39 36 37 37 38 35 34 26 31 37 30 21 18 20 24 15 14 19 21 18 9 5 5 12 7 10 28 43 26 28 25 24 14 17 10 16 14 19 25 23 18
45 39 45 44 41 42 41 37 38 37 35 38 37 29 27 27 30 20 19 20 19 18 20 21 17 14 12 13 10 13 11 22 30 36 42 22 29 24 13 12 16 19 11 7 5 18 8
39 42 47 48 40 41 39 39 40 36 34 39 39 37 24 21 26 19 18 17 17 18 15 7 7 9 8 10 19 23 19 26 36 27 51 37 19 29 2 22 12 12 8 12 8 19 9
41 40 47 49 44 40 41 38 39 35 37 36 40 37 35 22 17 19 17 18 13 13 12 9 5 6 9 13 20 20 19 29 40 28 37 38 18 14 11 15 8 4 12 9 9 26 13
47 46 38 46 46 42 43 43 39 38 38 37 38 38 37 22 17 15 14 14 7 12 17 14 10 8 7 9 12 9 13 35 33 42 30 19 15 7 5 12 29 15 14 9 13 18 14
44 45 41 43 44 43 46 40 39 40 40 38 37 36 35 22 15 10 10 6 8 5 9 8 16 14 16 17 12 3 16 47 42 28 9 12 14 21 13 7 8 13 13 13 7 16 13
41 41 41 44 42 40 43 45 42 40 41 40 37 35 31 19 12 7 6 5 7 5 11 6 12 13 12 18 11 27 41 18 29 23 10 8 19 9 19 14 18 19 11 5 3 12 14
45 37 40 43 42 40 42 44 47 46 40 39 38 31 27 14 9 6 5 2 1 12 3 10 13 11 8 14 13 19 9 25 28 15 11 10 14 16 15 10 14 5 18 9 10 9 1
42 38 38 41 41 39 43 44 47 43 39 40 40 27 22 7 3 6 5 6 3 8 8 9 7 5 6 5 10 19 21 14 5 13 15 9 14 15 15 8 9 7 8 11 14 8 7
41 39 40 39 37 36 40 44 48 41 39 43 35 24 12 5 3 8 7 7 2 2 10 5 7 8 7 7 17 11 17 22 14 17 9 3 14 17 12 13 9 5 10 9 8 8 6
45 41 40 37 34 34 39 44 46 42 41 40 31 16 1 2 7 5 6 7 1 10 2 7 4 8 4 8 8 7 6 17 21 9 12 8 6 6 6 6 7 17 12 13 8 5 5
43 42 41 37 32 32 39 43 43 39 39 35 19 4 8 8 6 10 6 5 8 9 6 4 4 1 4 8 8 7 5 12 7 8 6 17 5 4 6 13 7 6 9 4 3 0 8
46 41 41 36 31 31 38 42 42 38 37 26 8 9 10 9 9 12 8 6 11 7 7 4 2 4 1 1 7 8 3 5 5 7 8 9 8 3 8 5 14 4 8 8 11 8 5
48 42 39 34 30 31 36 41 39 35 32 19 5 14 10 13 9 6 1 6 11 12 8 9 1 2 3 4 7 5 4 4 8 9 7 9 7 4 6 1 3 7 5 7 11 4 2
51 43 37 32 28 31 33 38 36 31 26 8 14 12 9 14 6 3 5 5 1 6 5 4 4 3 2 5 3 3 3 3 7 4 6 5 10 5 6 3 13 3 11 6 4 4 7
49 41 36 30 27 30 33 34 30 27 20 4 15 8 8 12 7 3 2 8 5 8 3 2 5 5 3 3 2 2 8 4 2 4 6 8 6 4 8 8 12 3 4 7 7 5 6
48 40 34 29 25 28 31 31 25 23 12 10 10 3 10 14 2 3 4 7 3 3 5 2 3 3 10 8 4 1 9 8 14 10 6 2 9 6 5 4 3 4 8 7 7 8 1
47 41 32 28 23 26 27 25 21 19 5 12 12 7 8 10 2 3 8 5 4 3 3 4 3 3 3 7 3 2 3 5 18 6 11 9 3 8 5 3 6 4 10 7 7 4 11
51 40 33 26 23 23 23 16 17 13 1 13 10 5 6 7 4 1 4 2 2 3 1 2 3 2 4 4 5 4 3 6 11 8 14 10 5 8 12 5 9 10 22 29 28 10 18
53 39 32 24 21 19 15 9 13 9 5 12 7 5 8 6 6 2 3 4 1 1 2 3 3 4 5 7 4 6 3 3 7 11 7 6 6 5 4 4 6 7 10 28 31 32 23
51 42 32 28 23 14 5 4 7 6 6 9 9 9 9 8 5 6 2 2 2 2 3 2 4 2 4 6 7 12 10 5 6 3 6 5 4 4 6 4 3 7 14 18 31 36 39
51 45 36 29 17 11 5 2 3 5 4 6 10 13 9 2 4 6 5 2 2 7 7 9 2 2 4 4 6 2 8 11 16 14 7 10 8 5 4 6 5 11 13 22 10 9 23
56 47 38 27 18 13 8 5 4 4 6 5 13 14 7 2 4 4 1 2 4 8 4 5 4 3 4 3 13 17 23 20 17 8 11 10 7 4 1 7 6 10 3 3 18 17 17
57 50 37 26 20 15 11 7 6 5 5 4 12 11 10 6 5 4 3 4 7 6 2 2 5 6 3 5 7 7 7 7 7 2 4 5 9 5 6 5 10 4 2 7 9 6 9
60 50 38 29 23 18 13 8 6 5 5 5 9 12 8 21 3 5 4 9 3 4 4 6 6 8 3 5 3 6 8 7 4 4 4 6 6 6 5 4 8 10 5 4 2 5 7
65 55 40 32 27 22 16 10 7 6 6 5 10 12 9 15 8 5 6 6 3 4 2 4 15 8 8 3 5 5 5 9 8 11 9 5 2 7 6 5 12 12 8 11 6 8 11
69 55 42 37 31 25 20 15 9 9 6 3 10 12 11 13 16 12 8 6 3 3 4 7 2 8 5 5 5 6 4 9 5 3 10 11 10 6 6 5 11 7 5 6 5 16 19
68 56 46 41 34 29 23 17 14 12 7 4 12 16 21 17 21 25 27 26 17 4 1 8 5 2 1 1 2 4 2 1 7 5 2 4 10 8 13 10 6 2 10 20 25 30 32
Wind_Direction_500mb
344 338 336 342 345 351 350 348 350 352 350 350 339 334 333 340 337 333 336 338 336 333 335 347 357 355 356 284 269 287 350 167 199 207 189 179 171 168 136 160 124 125 174 174 125 165 156
342 336 332 335 341 345 347 346 346 350 353 353 343 333 332 337 336 331 322 324 324 319 319 327 334 343 335 295 288 329 289 185 179 205 200 172 175 169 114 158 149 152 131 138 194 152 162
332 339 331 328 336 340 344 346 345 349 351 347 348 339 328 333 333 348 337 332 331 324 313 303 309 314 309 265 308 301 265 213 188 205 205 184 161 181 161 135 118 148 101 88 177 174 182
329 340 330 324 333 335 337 339 341 345 345 343 344 340 325 319 329 329 336 331 329 329 353 320 323 326 261 271 295 284 249 217 202 204 201 206 139 193 37 132 89 101 103 165 201 168 193
318 327 327 323 326 332 332 337 339 342 338 338 339 339 334 319 311 318 326 321 315 320 342 335 327 340 300 283 301 299 213 211 203 200 192 205 166 164 137 130 104 164 165 148 167 189 153
316 318 323 323 320 328 331 336 334 336 333 333 334 335 332 314 307 311 331 326 316 326 331 301 303 305 236 285 301 265 176 174 169 165 145 199 173 139 109 174 184 162 119 146 166 180 179
305 310 312 318 318 324 331 334 332 331 332 330 332 330 330 324 297 303 335 342 327 308 346 308 303 284 309 303 345 315 136 151 157 154 156 236 169 178 150 100 135 118 116 139 153 177 178
303 311 310 313 317 321 328 333 334 333 328 327 328 329 329 323 281 271 315 43 40 336 311 331 326 308 322 350 8 75 121 141 153 143 127 148 179 160 138 118 130 126 123 146 107 148 175
294 308 306 310 314 319 325 331 333 336 331 329 327 333 328 317 276 239 232 244 85 355 290 320 330 334 350 27 36 52 70 105 136 118 185 152 142 154 129 111 98 75 160 172 155 108 186
295 303 302 307 310 318 323 329 332 331 332 328 330 331 328 308 255 215 200 228 287 5 64 301 358 356 1 73 53 53 86 93 88 145 189 121 155 140 134 113 115 114 169 149 134 116 182
292 300 299 304 307 315 319 326 332 337 333 330 337 327 326 228 172 168 155 179 227 56 48 331 323 325 2 116 141 30 61 97 80 165 194 108 138 145 134 161 150 134 142 117 100 102 113
285 293 298 300 305 312 317 325 331 335 333 340 338 332 141 153 177 184 154 155 37 48 316 346 346 348 316 132 93 85 72 85 126 20 67 86 64 71 123 66 140 152 89 56 56 88 239
278 286 295 297 302 309 316 324 327 333 335 342 348 57 122 103 111 154 149 164 42 95 301 314 105 258 266 41 64 91 55 135 146 147 134 112 38 32 60 90 35 93 93 72 52 350 224
270 279 288 290 299 308 316 323 326 335 338 345 8 125 116 102 104 129 133 47 73 223 220 241 107 100 95 154 76 96 90 133 100 91 103 139 147 86 4 112 167 132 136 154 179 193 234
264 273 280 285 296 306 316 320 325 335 337 344 151 146 124 125 107 131 50 50 186 201 161 139 159 348 38 59 113 111 114 157 163 199 124 124 97 84 51 115 55 181 137 150 108 62 40
259 265 273 280 291 304 316 318 324 336 334 338 164 156 142 151 149 112 78 274 98 232 147 126 140 105 144 114 85 137 116 250 121 131 227 181 114 8 132 87 36 112 154 88 23 164 246
250 256 265 273 286 302 314 316 324 335 331 162 169 149 156 168 172 69 160 234 286 252 202 119 164 116 176 191 197 136 151 347 157 125 121 135 96 134 149 211 155 106 112 60 125 153 187
245 249 257 267 280 298 310 314 328 333 330 167 178 89 174 159 197 147 243 195 204 201 196 246 132 81 163 156 114 134 170 204 199 165 81 90 109 120 140 330 32 98 143 180 153 220 37
241 244 250 259 275 292 305 314 336 334 307 173 164 123 173 180 237 259 284 272 229 160 185 180 159 163 202 162 76 218 123 316 172 117 153 179 120 121 101 353 351 196 204 194 121 100 188
236 238 243 250 267 287 299 319 341 341 195 170 162 129 165 204 216 311 322 336 259 241 119 137 140 129 121 96 71 149 107 35 169 100 117 106 113 157 181 178 135 188 206 220 225 222 236
226 231 230 243 258 280 294 322 345 357 149 177 162 177 163 172 189 195 300 296 270 4 344 34 31 120 154 132 107 132 112 74 62 135 59 91 131 123 221 129 145 193 196 213 222 233 231
221 221 220 234 242 258 265 325 341 19 173 191 173 155 154 124 152 134 330 261 279 117 329 9 138 344 155 143 161 189 140 170 193 75 100 46 136 114 31 37 136 239 221 222 227 236 244
213 209 211 222 226 234 208 163 28 43 186 192 157 156 156 26 119 141 190 216 272 328 47 74 273 91 92 17 338 139 168 171 175 151 134 143 129 87 273 345 325 291 230 200 192 226 217
203 200 206 211 206 211 198 161 130 91 90 156 156 145 140 133 104 137 120 268 349 344 40 329 50 159 20 144 91 77 71 81 125 80 139 135 110 79 347 18 355 255 354 194 211 251 220
193 197 200 202 195 192 183 157 123 109 95 94 132 145 150 109 118 132 52 21 326 341 75 281 20 21 321 132 54 59 12 22 351 56 118 88 121 109 136 197 290 310 211 153 174 293 216
189 192 196 191 182 183 184 153 115 85 73 67 95 121 132 125 225 120 103 52 82 355 14 3 347 338 169 88 41 176 174 184 213 108 136 125 87 110 146 163 245 237 240 218 127 287 225
185 187 189 185 177 181 177 164 136 96 98 100 98 116 130 107 108 116 101 97 80 78 100 341 334 356 28 153 134 175 225 169 164 178 161 129 95 164 198 220 287 246 254 152 85 234 309
183 181 184 178 176 175 174 164 142 121 112 70 97 121 149 104 109 99 88 98 95 61 118 334 178 23 337 184 155 194 170 205 143 179 170 159 157 190 154 196 278 187 139 181 251 313 312
180 181 180 174 172 172 168 157 148 130 104 95 103 112 125 104 116 99 91 75 66 69 359 31 99 154 70 273 39 124 126 110 150 206 46 181 178 178 178 210 245 278 297 313 332 323 318
Wind_Speed_850mb
39 41 42 44 46 38 38 37 38 36 35 30 26 31 38 36 28 18 18 18 18 14 16 19 23 19 8 4 7 7 6 17 29 40 19 31 35 23 9 18 16 7 15 36 24 37 23
42 40 42 43 43 43 39 36 37 37 38 35 34 26 31 37 30 21 18 20 24 15 14 19 21 18 9 5 5 12 7 10 28 43 26 28 25 24 14 17 10 16 14 19 25 23 18
45 39 45 44 41 42 41 37 38 37 35 38 37 29 27 27 30 20 19 20 19 18 20 21 17 14 12 13 10 13 11 22 30 36 42 22 29 24 13 12 16 19 11 7 5 18 8
39 42 47 48 40 41 39 39 40 36 34 39 39 37 24 21 26 19 18 17 17 18 15 7 7 9 8 10 19 23 19 26 36 27 51 37 19 29 2 22 12 12 8 12 8 19 9
41 40 47 49 44 40 41 38 39 35 37 36 40 37 35 22 17 19 17 18 13 13 12 9 5 6 9 13 20 20 19 29 40 28 37 38 18 14 11 15 8 4 12 9 9 26 13
47 46 38 46 46 42 43 43 39 38 38 37 38 38 37 22 17 15 14 14 7 12 17 14 10 8 7 9 12 9 13 35 33 42 30 19 15 7 5 12 29 15 14 9 13 18 14
44 45 41 43 44 43 46 40 39 40 40 38 37 36 35 22 15 10 10 6 8 5 9 8 16 14 16 17 12 3 16 47 42 28 9 12 14 21 13 7 8 13 13 13 7 16 13
41 41 41 44 42 40 43 45 42 40 41 40 37 35 31 19 12 7 6 5 7 5 11 6 12 13 12 18 11 27 41 18 29 23 10 8 19 9 19 14 18 19 11 5 3 12 14
45 37 40 43 42 40 42 44 47 46 40 39 38 31 27 14 9 6 5 2 1 12 3 10 13 11 8 14 13 19 9 25 28 15 11 10 14 16 15 10 14 5 18 9 10 9 1
42 38 38 41 41 39 43 44 47 43 39 40 40 27 22 7 3 6 5 6 3 8 8 9 7 5 6 5 10 19 21 14 5 13 15 9 14 15 15 8 9 7 8 11 14 8 7
41 39 40 39 37 36 40 44 48 41 39 43 35 24 12 5 3 8 7 7 2 2 10 5 7 8 7 7 17 11 17 22 14 17 9 3 14 17 12 13 9 5 10 9 8 8 6
45 41 40 37 34 34 39 44 46 42 41 40 31 16 1 2 7 5 6 7 1 10 2 7 4 8 4 8 8 7 6 17 21 9 12 8 6 6 6 6 7 17 12 13 8 5 5
43 42 41 37 32 32 39 43 43 39 39 35 19 4 8 8 6 10 6 5 8 9 6 4 4 1 4 8 8 7 5 12 7 8 6 17 5 4 6 13 7 6 9 4 3 0 8
46 41 41 36 31 31 38 42 42 38 37 26 8 9 10 9 9 12 8 6 11 7 7 4 2 4 1 1 7 8 3 5 5 7 8 9 8 3 8 5 14 4 8 8 11 8 5
48 42 39 34 30 31 36 41 39 35 32 19 5 14 10 13 9 6 1 6 11 12 8 9 1 2 3 4 7 5 4 4 8 9 7 9 7 4 6 1 3 7 5 7 11 4 2
51 43 37 32 28 31 33 38 36 31 26 8 14 12 9 14 6 3 5 5 1 6 5 4 4 3 2 5 3 3 3 3 7 4 6 5 10 5 6 3 13 3 11 6 4 4 7
49 41 36 30 27 30 33 34 30 27 20 4 15 8 8 12 7 3 2 8 5 8 3 2 5 5 3 3 2 2 8 4 2 4 6 8 6 4 8 8 12 3 4 7 7 5 6
48 40 34 29 25 28 31 31 25 23 12 10 10 3 10 14 2 3 4 7 3 3 5 2 3 3 10 8 4 1 9 8 14 10 6 2 9 6 5 4 3 4 8 7 7 8 1
47 41 32 28 23 26 27 25 21 19 5 12 12 7 8 10 2 3 8 5 4 3 3 4 3 3 3 7 3 2 3 5 18 6 11 9 3 8 5 3 6 4 10 7 7 4 11
51 40 33 26 23 23 23 16 17 13 1 13 10 5 6 7 4 1 4 2 2 3 1 2 3 2 4 4 5 4 3 6 11 8 14 10 5 8 12 5 9 10 22 29 28 10 18
53 39 32 24 21 19 15 9 13 9 5 12 7 5 8 6 6 2 3 4 1 1 2 3 3 4 5 7 4 6 3 3 7 11 7 6 6 5 4 4 6 7 10 28 31 32 23
51 42 32 28 23 14 5 4 7 6 6 9 9 9 9 8 5 6 2 2 2 2 3 2 4 2 4 6 7 12 10 5 6 3 6 5 4 4 6 4 3 7 14 18 31 36 39
51 45 36 29 17 11 5 2 3 5 4 6 10 13 9 2 4 6 5 2 2 7 7 9 2 2 4 4 6 2 8 11 16 14 7 10 8 5 4 6 5 11 13 22 10 9 23
56 47 38 27 18 13 8 5 4 4 6 5 13 14 7 2 4 4 1 2 4 8 4 5 4 3 4 3 13 17 23 20 17 8 11 10 7 4 1 7 6 10 3 3 18 17 17
57 50 37 26 20 15 11 7 6 5 5 4 12 11 10 6 5 4 3 4 7 6 2 2 5 6 3 5 7 7 7 7 7 2 4 5 9 5 6 5 10 4 2 7 9 6 9
60 50 38 29 23 18 13 8 6 5 5 5 9 12 8 21 3 5 4 9 3 4 4 6 6 8 3 5 3 6 8 7 4 4 4 6 6 6 5 4 8 10 5 4 2 5 7
65 55 40 32 27 22 16 10 7 6 6 5 10 12 9 15 8 5 6 6 3 4 2 4 15 8 8 3 5 5 5 9 8 11 9 5 2 7 6 5 12 12 8 11 6 8 11
69 55 42 37 31 25 20 15 9 9 6 3 10 12 11 13 16 12 8 6 3 3 4 7 2 8 5 5 5 6 4 9 5 3 10 11 10 6 6 5 11 7 5 6 5 16 19
68 56 46 41 34 29 23 17 14 12 7 4 12 16 21 17 21 25 27 26 17 4 1 8 5 2 1 1 2 4 2 1 7 5 2 4 10 8 13 10 6 2 10 20 25 30 32
Wind_Direction_850mb
344 338 336 342 345 351 350 348 350 352 350 350 339 334 333 340 337 333 336 338 336 333 335 347 357 355 356 284 269 287 350 167 199 207 189 179 171 168 136 160 124 125 174 174 125 165 156
342 336 332 335 341 345 347 346 346 350 353 353 343 333 332 337 336 331 322 324 324 319 319 327 334 343 335 295 288 329 289 185 179 205 200 172 175 169 114 158 149 152 131 138 194 152 162
332 339 331 328 336 340 344 346 345 349 351 347 348 339 328 333 333 348 337 332 331 324 313 303 309 314 309 265 308 301 265 213 188 205 205 184 161 181 161 135 118 148 101 88 177 174 182
329 340 330 324 333 335 337 339 341 345 345 343 344 340 325 319 329 329 336 331 329 329 353 320 323 326 261 271 295 284 249 217 202 204 201 206 139 193 37 132 89 101 103 165 201 168 193
318 327 327 323 326 332 332 337 339 342 338 338 339 339 334 319 311 318 326 321 315 320 342 335 327 340 300 283 301 299 213 211 203 200 192 205 166 164 137 130 104 164 165 148 167 189 153
316 318 323 323 320 328 331 336 334 336 333 333 334 335 332 314 307 311 331 326 316 326 331 301 303 305 236 285 301 265 176 174 169 165 145 199 173 139 109 174 184 162 119 146 166 180 179
305 310 312 318 318 324 331 334 332 331 332 330 332 330 330 324 297 303 335 342 327 308 346 308 303 284 309 303 345 315 136 151 157 154 156 236 169 178 150 100 135 118 116 139 153 177 178
303 311 310 313 317 321 328 333 334 333 328 327 328 329 329 323 281 271 315 43 40 336 311 331 326 308 322 350 8 75 121 141 153 143 127 148 179 160 138 118 130 126 123 146 107 148 175
294 308 306 310 314 319 325 331 333 336 331 329 327 333 328 317 276 239 232 244 85 355 290 320 330 334 350 27 36 52 70 105 136 118 185 152 142 154 129 111 98 75 160 172 155 108 186
295 303 302 307 310 318 323 329 332 331 332 328 330 331 328 308 255 215 200 228 287 5 64 301 358 356 1 73 53 53 86 93 88 145 189 121 155 140 134 113 115 114 169 149 134 116 182
292 300 299 304 307 315 319 326 332 337 333 330 337 327 326 228 172 168 155 179 227 56 48 331 323 325 2 116 141 30 61 97 80 165 194 108 138 145 134 161 150 134 142 117 100 102 113
285 293 298 300 305 312 317 325 331 335 333 340 338 332 141 153 177 184 154 155 37 48 316 346 346 348 316 132 93 85 72 85 126 20 67 86 64 71 123 66 140 152 89 56 56 88 239
278 286 295 297 302 309 316 324 327 333 335 342 348 57 122 103 111 154 149 164 42 95 301 314 105 258 266 41 64 91 55 135 146 147 134 112 38 32 60 90 35 93 93 72 52 350 224
270 279 288 290 299 308 316 323 326 335 338 345 8 125 116 102 104 129 133 47 73 223 220 241 107 100 95 154 76 96 90 133 100 91 103 139 147 86 4 112 167 132 136 154 179 193 234
264 273 280 285 296 306 316 320 325 335 337 344 151 146 124 125 107 131 50 50 186 201 161 139 159 348 38 59 113 111 114 157 163 199 124 124 97 84 51 115 55 181 137 150 108 62 40
259 265 273 280 291 304 316 318 324 336 334 338 164 156 142 151 149 112 78 274 98 232 147 126 140 105 144 114 85 137 116 250 121 131 227 181 114 8 132 87 36 112 154 88 23 164 246
250 256 265 273 286 302 314 316 324 335 331 162 169 149 156 168 172 69 160 234 286 252 202 119 164 116 176 191 197 136 151 347 157 125 121 135 96 134 149 211 155 106 112 60 125 153 187
245 249 257 267 280 298 310 314 328 333 330 167 178 89 174 159 197 147 243 195 204 201 196 246 132 81 163 156 114 134 170 204 199 165 81 90 109 120 140 330 32 98 143 180 153 220 37
241 244 250 259 275 292 305 314 336 334 307 173 164 123 173 180 237 259 284 272 229 160 185 180 159 163 202 162 76 218 123 316 172 117 153 179 120 121 101 353 351 196 204 194 121 100 188
236 238 243 250 267 287 299 319 341 341 195 170 162 129 165 204 216 311 322 336 259 241 119 137 140 129 121 96 71 149 107 35 169 100 117 106 113 157 181 178 135 188 206 220 225 222 236
226 231 230 243 258 280 294 322 345 357 149 177 162 177 163 172 189 195 300 296 270 4 344 34 31 120 154 132 107 132 112 74 62 135 59 91 131 123 221 129 145 193 196 213 222 233 231
221 221 220 234 242 258 265 325 341 19 173 191 173 155 154 124 152 134 330 261 279 117 329 9 138 344 155 143 161 189 140 170 193 75 100 46 136 114 31 37 136 239 221 222 227 236 244
213 209 211 222 226 234 208 163 28 43 186 192 157 156 156 26 119 141 190 216 272 328 47 74 273 91 92 17 338 139 168 171 175 151 134 143 129 87 273 345 325 291 230 200 192 226 217
203 200 206 211 206 211 198 161 130 91 90 156 156 145 140 133 104 137 120 268 349 344 40 329 50 159 20 144 91 77 71 81 125 80 139 135 110 79 347 18 355 255 354 194 211 251 220
193 197 200 202 195 192 183 157 123 109 95 94 132 145 150 109 118 132 52 21 326 341 75 281 20 21 321 132 54 59 12 22 351 56 118 88 121 109 136 197 290 310 211 153 174 293 216
189 192 196 191 182 183 184 153 115 85 73 67 95 121 132 125 225 120 103 52 82 355 14 3 347 338 169 88 41 176 174 184 213 108 136 125 87 110 146 163 245 237 240 218 127 287 225
185 187 189 185 177 181 177 164 136 96 98 100 98 116 130 107 108 116 101 97 80 78 100 341 334 356 28 153 134 175 225 169 164 178 161 129 95 164 198 220 287 246 254 152 85 234 309
183 181 184 178 176 175 174 164 142 121 112 70 97 121 149 104 109 99 88 98 95 61 118 334 178 23 337 184 155 194 170 205 143 179 170 159 157 190 154 196 278 187 139 181 251 313 312
180 181 180 174 172 172 168 157 148 130 104 95 103 112 125 104 116 99 91 75 66 69 359 31 99 154 70 273 39 124 126 110 150 206 46 181 178 178 178 210 245 278 297 313 332 323 318